Crockett, TX

2:34 PM CDT on September 27, 2016 (GMT -0500)
Crockett

Weather History for KDKR - January, 2013

Change the Weather History Date:

Thursday, January 10, 2013

  Actual Average (KLFK) Record (KLFK)
Temperature  
Mean Temperature 55 °F 49 °F  
Max Temperature 66 °F 59 °F 79 °F (1963)
Min Temperature 44 °F 38 °F 11 °F (1962)
Degree Days  
Heating Degree Days 10 17  
Month to date heating degree days 170  
Since 1 July heating degree days 948  
Cooling Degree Days 0 0  
Month to date cooling degree days 0  
Year to date cooling degree days 0  
Growing Degree Days 5 (Base 50)    
Moisture  
Dew Point 52 °F    
Average Humidity 81    
Maximum Humidity 100    
Minimum Humidity 49    
Precipitation  
Precipitation 0.01 in 0.12 in 1.27 in (1991)
Month to date precipitation 1.30  
Year to date precipitation 1.30  
Snow  
Snow 0.00 in - - ()
Month to date snowfall  
Since 1 July snowfall  
Snow Depth -    
Sea Level Pressure  
Sea Level Pressure 30.03 in    
Wind  
Wind Speed 6 mph (SSW)    
Max Wind Speed 17 mph    
Max Gust Speed 24 mph    
Visibility 10 miles    
Events      
T = Trace of Precipitation, MM = Missing Value Source: NWS Daily Summary

Daily Weather History Graph

Daily Weather History Graph

Search for Another Location

Airport or City:

Trip Planner

Search our weather history database for the weather conditions in past years. The results will help you decide how hot, cold, wet, or windy it might be!

Date:

Astronomy

Jan. 10, 2013 Rise Set
Actual Time 7:21 AM CST 5:37 PM CST
Civil Twilight 6:55 AM CST 6:03 PM CST
Nautical Twilight 6:25 AM CST 6:33 PM CST
Astronomical Twilight 5:55 AM CST 7:03 PM CST
Moon 6:02 AM CST (1/10) 4:45 PM CST (1/10)
Length of Visible Light 11h 08m
Length of Day
10h 15m
Waning Crescent, 2% of the Moon is Illuminated
Jan 10
Waning Crescent
Jan 11
New
Jan 18
First Quarter
Jan 26
Full
Feb 3
Last Quarter

Hourly Weather History & Observations

Time (CST) Temp. Dew Point Humidity Pressure Visibility Wind Dir Wind Speed Gust Speed Precip Events Conditions
12:15 AM 64.4 °F 62.6 °F 94% 30.07 in 10.0 mi South 8.1 mph - N/A   Partly Cloudy
12:35 AM 64.4 °F 62.6 °F 94% 30.05 in 10.0 mi SSE 8.1 mph - N/A   Clear
12:55 AM 64.4 °F 62.6 °F 94% 30.06 in 10.0 mi South 5.8 mph - 0.01 in   Mostly Cloudy
2:15 AM 62.6 °F 60.8 °F 94% 30.04 in 10.0 mi Calm Calm - N/A   Overcast
2:35 AM 62.6 °F 60.8 °F 94% 30.03 in 10.0 mi SSE 3.5 mph - N/A   Overcast
2:55 AM 62.6 °F 60.8 °F 94% 30.02 in 10.0 mi South 4.6 mph - N/A   Overcast
3:15 AM 62.6 °F 60.8 °F 94% 30.05 in 10.0 mi South 5.8 mph - N/A   Overcast
3:35 AM 62.6 °F 60.8 °F 94% 30.05 in 10.0 mi South 6.9 mph - N/A   Overcast
3:55 AM 62.6 °F 60.8 °F 94% 30.04 in 10.0 mi SSE 5.8 mph - N/A   Overcast
4:35 AM 62.6 °F 60.8 °F 94% 30.03 in 10.0 mi Calm Calm - N/A   Overcast
4:55 AM 62.6 °F 60.8 °F 94% 30.02 in 10.0 mi Calm Calm - N/A   Overcast
5:15 AM 60.8 °F 60.8 °F 100% 30.01 in 10.0 mi South 5.8 mph - N/A   Overcast
5:35 AM 60.8 °F 60.8 °F 100% 30.01 in 10.0 mi Calm Calm - N/A   Overcast
5:55 AM 60.8 °F 60.8 °F 100% 30.02 in 9.0 mi Calm Calm - N/A   Overcast
6:35 AM 60.8 °F 60.8 °F 100% 30.01 in 10.0 mi Calm Calm - N/A   Overcast
6:55 AM 59.0 °F 59.0 °F 100% 30.01 in 10.0 mi Calm Calm - N/A   Scattered Clouds
7:35 AM 60.8 °F 57.2 °F 88% 30.03 in 10.0 mi SSW 8.1 mph - N/A   Overcast
7:55 AM 57.2 °F 57.2 °F 100% 30.03 in 10.0 mi Calm Calm - N/A   Mostly Cloudy
8:35 AM 57.2 °F 57.2 °F 100% 30.03 in 6.0 mi Calm Calm - N/A   Scattered Clouds
8:55 AM 59.0 °F 57.2 °F 94% 30.05 in 10.0 mi SSW 3.5 mph - N/A   Scattered Clouds
9:15 AM 59.0 °F 57.2 °F 94% 30.06 in 10.0 mi SSW 3.5 mph - N/A   Scattered Clouds
9:35 AM 60.8 °F 55.4 °F 82% 30.07 in 10.0 mi SSW 5.8 mph - N/A   Partly Cloudy
9:55 AM 60.8 °F 55.4 °F 82% 30.08 in 10.0 mi SSW 8.1 mph - N/A   Partly Cloudy
10:15 AM 60.8 °F 53.6 °F 77% 30.09 in 10.0 mi SSW 8.1 mph - N/A   Partly Cloudy
10:35 AM 62.6 °F 55.4 °F 77% 30.07 in 10.0 mi South 11.5 mph - N/A   Partly Cloudy
10:55 AM 62.6 °F 53.6 °F 72% 30.06 in 10.0 mi SSW 9.2 mph - N/A   Clear
11:15 AM 62.6 °F 51.8 °F 68% 30.05 in 10.0 mi SSW 9.2 mph - N/A   Clear
11:35 AM 62.6 °F 51.8 °F 68% 30.05 in 10.0 mi South 13.8 mph - N/A   Clear
11:55 AM 64.4 °F 51.8 °F 64% 30.05 in 10.0 mi SSW 12.7 mph 16.1 mph N/A   Clear
12:15 PM 64.4 °F 53.6 °F 68% 30.04 in 10.0 mi SW 11.5 mph - N/A   Scattered Clouds
12:35 PM 64.4 °F 51.8 °F 64% 30.02 in 10.0 mi South 9.2 mph 16.1 mph N/A   Partly Cloudy
12:55 PM 64.4 °F 50.0 °F 59% 30.01 in 10.0 mi SSW 11.5 mph - N/A   Clear
1:35 PM 66.2 °F 48.2 °F 52% 29.99 in 10.0 mi SSW 11.5 mph 18.4 mph N/A   Clear
1:55 PM 66.2 °F 46.4 °F 49% 29.99 in 10.0 mi SSW 17.3 mph 21.9 mph N/A   Clear
2:15 PM 66.2 °F 46.4 °F 49% 29.99 in 10.0 mi South 17.3 mph 24.2 mph N/A   Clear
2:35 PM 64.4 °F 46.4 °F 52% 29.99 in 10.0 mi SW 16.1 mph 21.9 mph N/A   Clear
2:55 PM 64.4 °F 46.4 °F 52% 29.99 in 10.0 mi SW 16.1 mph 21.9 mph N/A   Clear
3:15 PM 64.4 °F 46.4 °F 52% 29.99 in 10.0 mi SW 11.5 mph 18.4 mph N/A   Clear
3:35 PM 64.4 °F 46.4 °F 52% 29.99 in 10.0 mi SW 17.3 mph 21.9 mph N/A   Clear
3:55 PM 64.4 °F 46.4 °F 52% 30.00 in 10.0 mi SSW 15.0 mph 19.6 mph N/A   Clear
4:15 PM 64.4 °F 44.6 °F 49% 30.00 in 10.0 mi SSW 12.7 mph - N/A   Clear
4:35 PM 64.4 °F 46.4 °F 52% 30.00 in 10.0 mi SW 11.5 mph 16.1 mph N/A   Clear
4:55 PM 62.6 °F 46.4 °F 55% 30.01 in 10.0 mi SW 12.7 mph - N/A   Clear
5:15 PM 60.8 °F 46.4 °F 59% 30.02 in 10.0 mi SW 5.8 mph - N/A   Clear
5:35 PM 59.0 °F 46.4 °F 63% 30.01 in 10.0 mi Calm Calm - N/A   Clear
5:55 PM 55.4 °F 46.4 °F 72% 30.02 in 10.0 mi WSW 5.8 mph - N/A   Clear
6:15 PM 55.4 °F 46.4 °F 72% 30.02 in 10.0 mi WSW 4.6 mph - N/A   Clear
6:35 PM 55.4 °F 46.4 °F 72% 30.03 in 10.0 mi Calm Calm - N/A   Clear
6:55 PM 53.6 °F 46.4 °F 77% 30.03 in 10.0 mi Calm Calm - N/A   Clear
7:15 PM 51.8 °F 46.4 °F 82% 30.04 in 10.0 mi Calm Calm - N/A   Clear
7:35 PM 50.0 °F 46.4 °F 87% 30.05 in 10.0 mi Calm Calm - N/A   Clear
7:55 PM 48.2 °F 46.4 °F 93% 30.05 in 10.0 mi Calm Calm - N/A   Clear
8:15 PM 48.2 °F 46.4 °F 93% 30.04 in 10.0 mi Calm Calm - N/A   Clear
8:35 PM 46.4 °F 44.6 °F 93% 30.05 in 10.0 mi Calm Calm - N/A   Clear
8:55 PM 46.4 °F 44.6 °F 93% 30.05 in 10.0 mi Calm Calm - N/A   Clear
9:15 PM 46.4 °F 44.6 °F 93% 30.05 in 10.0 mi Calm Calm - N/A   Clear
9:35 PM 46.4 °F 44.6 °F 93% 30.05 in 10.0 mi Calm Calm - N/A   Clear
9:55 PM 44.6 °F 44.6 °F 100% 30.05 in 10.0 mi Calm Calm - N/A   Clear
10:15 PM 44.6 °F 44.6 °F 100% 30.06 in 10.0 mi Calm Calm - N/A   Clear
10:35 PM 44.6 °F 42.8 °F 93% 30.06 in 10.0 mi Calm Calm - N/A   Clear
10:55 PM 44.6 °F 42.8 °F 93% 30.06 in 10.0 mi Calm Calm - N/A   Clear
11:15 PM 44.6 °F 42.8 °F 93% 30.05 in 10.0 mi Calm Calm - N/A   Clear
11:35 PM 44.6 °F 42.8 °F 93% 30.06 in 10.0 mi Calm Calm - N/A   Clear
11:55 PM 44.6 °F 42.8 °F 93% 30.06 in 10.0 mi Calm Calm - N/A   Clear